Location: Chanteloup
(48.8560°N, 2.7390°E)
Time: 14:36:29
(UTC+00:00)

CZ-4 R/B - Pass Details

Date: 24 October 2021
Orbit: 531 x 595 km, 97.8° (Epoch: 27 November)

Event Time Altitude Azimuth Distance (km) Brightness Sun altitude
Rises 18:01:15 0° 150° (SSE) 2,745 4.6 -13.6°
Reaches altitude 10° 18:03:25 10° 144° (SE) 1,864 3.7 -14.0°
Maximum altitude 18:07:18 48° 71° (ENE) 765 1.6 -14.6°
Drops below altitude 10° 18:11:17 10° 357° (N) 1,913 4.1 -15.3°
Sets 18:13:31 0° 352° (N) 2,827 5.1 -15.6°
